Time,TemperatureF,DewpointF,PressureIn,WindDirection,WindDirectionDegrees,WindSpeedMPH,WindSpeedGustMPH,Humidity,HourlyPrecipIn,Conditions,Clouds,dailyrainin,SoftwareType,DateUTC
2013-01-22 00:10:00,41.4,22.0,29.94,West,263,4.0,4.0,47,0.00,,,0.00,weatherlink.com 1.10,2013-01-22 05:10:00,
2013-01-22 00:25:00,41.2,24.0,29.94,WSW,251,2.0,5.0,50,0.00,,,0.00,weatherlink.com 1.10,2013-01-22 05:25:00,
2013-01-22 00:40:00,41.5,21.0,29.95,West,259,0.0,5.0,44,0.00,,,0.00,weatherlink.com 1.10,2013-01-22 05:40:00,
2013-01-22 00:58:00,41.3,20.0,29.95,West,262,2.0,7.0,43,0.00,,,0.00,weatherlink.com 1.10,2013-01-22 05:58:00,
2013-01-22 01:10:00,41.3,19.0,29.96,WNW,284,4.0,6.0,41,0.00,,,0.00,weatherlink.com 1.10,2013-01-22 06:10:00,
2013-01-22 01:25:00,41.0,20.0,29.96,West,274,1.0,3.0,43,0.00,,,0.00,weatherlink.com 1.10,2013-01-22 06:25:00,
2013-01-22 01:40:00,40.7,20.0,29.97,NNW,335,4.0,6.0,43,0.00,,,0.00,weatherlink.com 1.10,2013-01-22 06:40:00,
2013-01-22 01:56:00,40.6,20.0,29.97,West,278,1.0,7.0,43,0.00,,,0.00,weatherlink.com 1.10,2013-01-22 06:56:00,
2013-01-22 02:11:00,39.8,20.0,29.98,West,278,1.0,4.0,45,0.00,,,0.00,weatherlink.com 1.10,2013-01-22 07:11:00,
2013-01-22 02:41:00,37.8,20.0,30.00,WSW,242,2.0,6.0,48,0.00,,,0.00,weatherlink.com 1.10,2013-01-22 07:41:00,
2013-01-22 02:56:00,38.3,18.0,30.00,NW,315,3.0,8.0,44,0.00,,,0.00,weatherlink.com 1.10,2013-01-22 07:56:00,
2013-01-22 03:11:00,38.0,17.0,30.01,West,277,0.0,7.0,43,0.00,,,0.00,weatherlink.com 1.10,2013-01-22 08:11:00,
2013-01-22 03:26:00,37.3,17.0,30.01,NW,304,2.0,5.0,44,0.00,,,0.00,weatherlink.com 1.10,2013-01-22 08:26:00,
2013-01-22 03:41:00,36.8,17.0,30.02,North,6,3.0,7.0,44,0.00,,,0.00,weatherlink.com 1.10,2013-01-22 08:41:00,
2013-01-22 03:56:00,36.0,16.0,30.03,NW,323,0.0,4.0,45,0.00,,,0.00,weatherlink.com 1.10,2013-01-22 08:56:00,
2013-01-22 04:11:00,35.2,16.0,30.02,North,5,1.0,7.0,46,0.00,,,0.00,weatherlink.com 1.10,2013-01-22 09:11:00,
2013-01-22 04:26:00,34.5,16.0,30.03,NW,320,2.0,5.0,46,0.00,,,0.00,weatherlink.com 1.10,2013-01-22 09:26:00,
2013-01-22 04:41:00,34.4,14.0,30.04,NW,312,3.0,9.0,44,0.00,,,0.00,weatherlink.com 1.10,2013-01-22 09:41:00,
2013-01-22 04:56:00,34.1,14.0,30.05,NNE,18,3.0,8.0,44,0.00,,,0.00,weatherlink.com 1.10,2013-01-22 09:56:00,
2013-01-22 05:26:00,33.1,14.0,30.07,NW,307,7.0,9.0,45,0.00,,,0.00,weatherlink.com 1.10,2013-01-22 10:26:00,
2013-01-22 05:41:00,32.4,13.0,30.08,NNW,335,5.0,7.0,45,0.00,,,0.00,weatherlink.com 1.10,2013-01-22 10:41:00,
2013-01-22 05:56:00,32.1,12.0,30.09,NW,304,3.0,10.0,44,0.00,,,0.00,weatherlink.com 1.10,2013-01-22 10:56:00,
2013-01-22 06:11:00,31.6,12.0,30.10,NNW,333,1.0,9.0,44,0.00,,,0.00,weatherlink.com 1.10,2013-01-22 11:11:00,
2013-01-22 06:26:00,31.2,11.0,30.11,NNW,342,1.0,7.0,43,0.00,,,0.00,weatherlink.com 1.10,2013-01-22 11:26:00,
2013-01-22 06:42:00,30.6,11.0,30.12,North,352,0.0,6.0,45,0.00,,,0.00,weatherlink.com 1.10,2013-01-22 11:42:00,
2013-01-22 06:57:00,29.9,11.0,30.13,NW,319,0.0,5.0,45,0.00,,,0.00,weatherlink.com 1.10,2013-01-22 11:57:00,
2013-01-22 07:12:00,29.7,10.0,30.14,NNW,344,2.0,6.0,44,0.00,,,0.00,weatherlink.com 1.10,2013-01-22 12:12:00,
2013-01-22 07:27:00,29.7,11.0,30.15,NNW,333,2.0,5.0,45,0.00,,,0.00,weatherlink.com 1.10,2013-01-22 12:27:00,
2013-01-22 07:42:00,29.5,11.0,30.15,WNW,284,0.0,5.0,46,0.00,,,0.00,weatherlink.com 1.10,2013-01-22 12:42:00,
2013-01-22 07:57:00,29.6,11.0,30.16,SE,124,1.0,11.0,47,0.00,,,0.00,weatherlink.com 1.10,2013-01-22 12:57:00,
2013-01-22 08:12:00,30.0,11.0,30.17,NW,309,8.0,13.0,45,0.00,,,0.00,weatherlink.com 1.10,2013-01-22 13:12:00,
2013-01-22 08:27:00,30.3,11.0,30.16,NW,311,4.0,13.0,45,0.00,,,0.00,weatherlink.com 1.10,2013-01-22 13:27:00,
2013-01-22 08:42:00,30.6,10.0,30.17,NNW,335,3.0,12.0,42,0.00,,,0.00,weatherlink.com 1.10,2013-01-22 13:42:00,
2013-01-22 08:57:00,31.0,11.0,30.18,North,4,5.0,13.0,43,0.00,,,0.00,weatherlink.com 1.10,2013-01-22 13:57:00,
2013-01-22 09:12:00,31.6,10.0,30.19,NW,304,3.0,11.0,40,0.00,,,0.00,weatherlink.com 1.10,2013-01-22 14:12:00,
2013-01-22 09:27:00,31.9,9.0,30.20,NNE,16,12.0,16.0,39,0.00,,,0.00,weatherlink.com 1.10,2013-01-22 14:27:00,
2013-01-22 09:42:00,32.5,9.0,30.21,NNW,328,5.0,12.0,37,0.00,,,0.00,weatherlink.com 1.10,2013-01-22 14:42:00,
2013-01-22 09:57:00,32.6,9.0,30.21,NE,46,6.0,14.0,37,0.00,,,0.00,weatherlink.com 1.10,2013-01-22 14:57:00,
2013-01-22 10:12:00,32.9,9.0,30.22,North,349,6.0,15.0,37,0.00,,,0.00,weatherlink.com 1.10,2013-01-22 15:12:00,
2013-01-22 10:27:00,33.4,10.0,30.21,West,271,3.0,11.0,37,0.00,,,0.00,weatherlink.com 1.10,2013-01-22 15:27:00,
2013-01-22 10:42:00,33.9,10.0,30.22,NNW,329,3.0,8.0,37,0.00,,,0.00,weatherlink.com 1.10,2013-01-22 15:42:00,
2013-01-22 10:57:00,34.3,8.0,30.22,NW,321,4.0,13.0,34,0.00,,,0.00,weatherlink.com 1.10,2013-01-22 15:57:00,
2013-01-22 11:12:00,34.2,7.0,30.21,WSW,251,8.0,12.0,32,0.00,,,0.00,weatherlink.com 1.10,2013-01-22 16:12:00,
2013-01-22 11:27:00,34.8,5.0,30.22,NW,309,11.0,11.0,29,0.00,,,0.00,weatherlink.com 1.10,2013-01-22 16:27:00,
2013-01-22 11:42:00,35.0,6.0,30.21,WNW,295,6.0,10.0,29,0.00,,,0.00,weatherlink.com 1.10,2013-01-22 16:42:00,
2013-01-22 11:57:00,35.2,5.0,30.20,NW,322,4.0,11.0,28,0.00,,,0.00,weatherlink.com 1.10,2013-01-22 16:57:00,
2013-01-22 12:12:00,36.0,6.0,30.19,West,266,1.0,12.0,29,0.00,,,0.00,weatherlink.com 1.10,2013-01-22 17:12:00,
2013-01-22 12:27:00,35.7,5.0,30.18,NW,307,3.0,14.0,28,0.00,,,0.00,weatherlink.com 1.10,2013-01-22 17:27:00,
2013-01-22 12:42:00,36.0,5.0,30.18,WSW,255,2.0,13.0,27,0.00,,,0.00,weatherlink.com 1.10,2013-01-22 17:42:00,
2013-01-22 12:57:00,35.9,5.0,30.18,NW,307,8.0,13.0,27,0.00,,,0.00,weatherlink.com 1.10,2013-01-22 17:57:00,
2013-01-22 13:13:00,36.4,4.0,30.17,WNW,285,2.0,13.0,25,0.00,,,0.00,weatherlink.com 1.10,2013-01-22 18:13:00,
2013-01-22 13:27:00,36.5,4.0,30.17,NNW,329,6.0,11.0,25,0.00,,,0.00,weatherlink.com 1.10,2013-01-22 18:27:00,
2013-01-22 13:42:00,36.1,3.0,30.16,West,281,3.0,15.0,25,0.00,,,0.00,weatherlink.com 1.10,2013-01-22 18:42:00,
2013-01-22 13:57:00,36.0,4.0,30.17,NW,312,4.0,14.0,26,0.00,,,0.00,weatherlink.com 1.10,2013-01-22 18:57:00,
2013-01-22 14:12:00,36.2,3.0,30.17,NNW,347,5.0,16.0,25,0.00,,,0.00,weatherlink.com 1.10,2013-01-22 19:12:00,
2013-01-22 14:27:00,36.1,2.0,30.17,SW,235,3.0,11.0,24,0.00,,,0.00,weatherlink.com 1.10,2013-01-22 19:27:00,
2013-01-22 14:42:00,36.5,4.0,30.17,NE,35,4.0,12.0,25,0.00,,,0.00,weatherlink.com 1.10,2013-01-22 19:42:00,
2013-01-22 14:58:00,36.7,5.0,30.17,WSW,238,6.0,10.0,26,0.00,,,0.00,weatherlink.com 1.10,2013-01-22 19:58:00,
2013-01-22 15:12:00,36.8,4.0,30.17,NW,315,1.0,8.0,25,0.00,,,0.00,weatherlink.com 1.10,2013-01-22 20:12:00,
2013-01-22 15:27:00,37.0,4.0,30.17,NW,304,3.0,10.0,25,0.00,,,0.00,weatherlink.com 1.10,2013-01-22 20:27:00,
2013-01-22 15:42:00,36.9,5.0,30.17,WNW,297,0.0,12.0,26,0.00,,,0.00,weatherlink.com 1.10,2013-01-22 20:42:00,
2013-01-22 15:57:00,36.9,5.0,30.18,WSW,255,0.0,7.0,26,0.00,,,0.00,weatherlink.com 1.10,2013-01-22 20:57:00,
2013-01-22 16:13:00,37.0,5.0,30.18,WNW,295,0.0,8.0,26,0.00,,,0.00,weatherlink.com 1.10,2013-01-22 21:13:00,
2013-01-22 16:28:00,36.7,5.0,30.18,West,278,2.0,6.0,26,0.00,,,0.00,weatherlink.com 1.10,2013-01-22 21:28:00,
2013-01-22 16:43:00,36.7,5.0,30.18,NNW,331,2.0,5.0,26,0.00,,,0.00,weatherlink.com 1.10,2013-01-22 21:43:00,
2013-01-22 17:13:00,34.7,4.0,30.20,WNW,284,0.0,7.0,27,0.00,,,0.00,weatherlink.com 1.10,2013-01-22 22:13:00,
2013-01-22 17:28:00,34.4,1.0,30.20,West,277,2.0,7.0,24,0.00,,,0.00,weatherlink.com 1.10,2013-01-22 22:28:00,
2013-01-22 17:58:00,32.7,4.0,30.20,West,277,0.0,1.0,29,0.00,,,0.00,weatherlink.com 1.10,2013-01-22 22:58:00,
2013-01-22 18:13:00,30.6,4.0,30.20,West,276,0.0,0.0,32,0.00,,,0.00,weatherlink.com 1.10,2013-01-22 23:13:00,
2013-01-22 18:28:00,28.2,12.0,30.22,West,275,0.0,0.0,51,0.00,,,0.00,weatherlink.com 1.10,2013-01-22 23:28:00,
2013-01-22 18:43:00,26.7,12.0,30.22,NE,46,0.0,1.0,53,0.00,,,0.00,weatherlink.com 1.10,2013-01-22 23:43:00,
2013-01-22 18:58:00,26.2,11.0,30.22,NE,46,0.0,1.0,53,0.00,,,0.00,weatherlink.com 1.10,2013-01-22 23:58:00,
2013-01-22 19:13:00,25.6,11.0,30.23,NNW,339,0.0,1.0,54,0.00,,,0.00,weatherlink.com 1.10,2013-01-23 00:13:00,
2013-01-22 19:28:00,25.1,11.0,30.23,ENE,69,0.0,0.0,56,0.00,,,0.00,weatherlink.com 1.10,2013-01-23 00:28:00,
2013-01-22 19:43:00,24.4,9.0,30.23,ENE,70,0.0,0.0,53,0.00,,,0.00,weatherlink.com 1.10,2013-01-23 00:43:00,
2013-01-22 19:58:00,25.9,9.0,30.23,ENE,70,0.0,0.0,49,0.00,,,0.00,weatherlink.com 1.10,2013-01-23 00:58:00,
2013-01-22 20:13:00,25.9,9.0,30.24,ENE,70,0.0,0.0,49,0.00,,,0.00,weatherlink.com 1.10,2013-01-23 01:13:00,
2013-01-22 20:28:00,25.8,9.0,30.23,ENE,69,0.0,0.0,49,0.00,,,0.00,weatherlink.com 1.10,2013-01-23 01:28:00,
2013-01-22 20:43:00,25.1,9.0,30.25,ENE,70,0.0,0.0,50,0.00,,,0.00,weatherlink.com 1.10,2013-01-23 01:43:00,
2013-01-22 20:58:00,25.4,8.0,30.25,NNE,26,0.0,2.0,48,0.00,,,0.00,weatherlink.com 1.10,2013-01-23 01:58:00,
2013-01-22 21:13:00,26.2,7.0,30.25,NE,46,2.0,3.0,44,0.00,,,0.00,weatherlink.com 1.10,2013-01-23 02:13:00,
2013-01-22 21:28:00,26.1,7.0,30.25,NE,44,0.0,1.0,45,0.00,,,0.00,weatherlink.com 1.10,2013-01-23 02:28:00,
2013-01-22 21:43:00,25.1,12.0,30.26,NE,44,0.0,0.0,59,0.00,,,0.00,weatherlink.com 1.10,2013-01-23 02:43:00,
2013-01-22 21:58:00,23.8,10.0,30.26,NE,44,0.0,0.0,56,0.00,,,0.00,weatherlink.com 1.10,2013-01-23 02:58:00,
2013-01-22 22:28:00,21.9,13.0,30.27,NE,44,0.0,0.0,69,0.00,,,0.00,weatherlink.com 1.10,2013-01-23 03:28:00,
2013-01-22 22:43:00,20.8,11.0,30.28,NE,44,0.0,0.0,67,0.00,,,0.00,weatherlink.com 1.10,2013-01-23 03:43:00,
2013-01-22 22:58:00,20.7,15.0,30.29,NE,44,0.0,0.0,78,0.00,,,0.00,weatherlink.com 1.10,2013-01-23 03:58:00,
2013-01-22 23:13:00,21.0,15.0,30.29,NE,44,0.0,1.0,76,0.00,,,0.00,weatherlink.com 1.10,2013-01-23 04:13:00,
2013-01-22 23:28:00,20.2,14.0,30.29,NE,44,0.0,0.0,78,0.00,,,0.00,weatherlink.com 1.10,2013-01-23 04:28:00,
2013-01-22 23:43:00,19.2,14.0,30.28,NE,44,0.0,0.0,80,0.00,,,0.00,weatherlink.com 1.10,2013-01-23 04:43:00,
2013-01-22 23:58:00,18.8,14.0,30.28,NE,44,0.0,0.0,80,0.00,,,0.00,weatherlink.com 1.10,2013-01-23 04:58:00,